sat.trackr.live / text

‹ back to catalog

STARLINK-11590 [DTC]

NORAD 63112 · 2025-039J

PAYLOAD ACTIVE UNKNOWN

§ Identity

Operator
Country
US
Launch date
2025-02-27
Launch site
AFETR
Launch vehicle
Mass (kg)
RCS (m²)

Purposes: comms

External: N2YO · Heavens-Above · Gunter

§ Orbital elements

Epoch: 2026-09-20T18:46:48.566784Z

Period
91.67 min
Inclination
42.9979°
Eccentricity
0.0000912
Mean motion
15.70850568 rev/d
Perigee alt
355.9 km
Apogee alt
357.1 km
Semi-major
6,734.6 km
B*
1.0044e-3
RAAN
141.3238°
Arg perigee
240.3019°
Mean anomaly
119.7758°
Rev number
9,029

§ Raw data

STARLINK-11590 [DTC]1 63112U 25039J   26263.78250656  .00130531  00000+0  10044-2 0  99932 63112  42.9979 141.3238 0000912 240.3019 119.7758 15.70850568 90291

JSON: /api/v1/satellites/63112 · /tle

For live sub-satellite position, see the globe view (requires WebGL).

§ Visibility from observer

Set your observer location to see the next 7 days of passes ≥ 10°. The values pass through the URL so the page stays shareable.

No JS? Fill the form by hand. The geolocation button needs JavaScript.